This is the latest recevied weather packets stored in our database for station/object W1RCP. If no packets are shown the sender has not sent any weather packets the latest 1 day(s).
| Time | Temp. | Humidity | Pressure | Rain* | Wind** | Luminosity | Snow |
|---|---|---|---|---|---|---|---|
| 1778038955 | 20° C | 73% | 1026.4 hPa | 0 mm | 0 m/s | 0 W/m² | - |
| 1778038653 | 20° C | 72% | 1026.3 hPa | 0 mm | 0 m/s | 0 W/m² | - |
| 1778038350 | 20° C | 72% | 1026.4 hPa | 0 mm | 0.45 m/s, 204° | 0 W/m² | - |
| 1778038047 | 20° C | 72% | 1026.1 hPa | 0 mm | 0 m/s | 0 W/m² | - |
| 1778037744 | 19.44° C | 73% | 1026.3 hPa | 0 mm | 0 m/s | 0 W/m² | - |
| 1778037440 | 19.44° C | 73% | 1026.3 hPa | 0 mm | 0 m/s | 0 W/m² | - |
| 1778037138 | 18.89° C | 74% | 1026.4 hPa | 0 mm | 0 m/s | 0 W/m² | - |
| 1778036836 | 18.89° C | 74% | 1026.5 hPa | 0 mm | 0 m/s | 0 W/m² | - |
| 1778036533 | 18.89° C | 74% | 1026.4 hPa | 0 mm | 0 m/s | 0 W/m² | - |
| 1778036230 | 19.44° C | 72% | 1026.6 hPa | 0 mm | 0 m/s | 0 W/m² | - |
| 1778035926 | 19.44° C | 72% | 1026.5 hPa | 0 mm | 0 m/s | 0 W/m² | - |
| 1778035623 | 19.44° C | 71% | 1026.3 hPa | 0 mm | 0 m/s | 0 W/m² | - |
| 1778035319 | 20° C | 70% | 1026.2 hPa | 0 mm | 0 m/s | 0 W/m² | - |
| 1778035016 | 20° C | 70% | 1026.2 hPa | 0 mm | 0 m/s | 0 W/m² | - |
| 1778034713 | 20.56° C | 70% | 1026 hPa | 0 mm | 0 m/s | 0 W/m² | - |
| 1778034410 | 20.56° C | 67% | 1026.2 hPa | 0 mm | 0 m/s | 0 W/m² | - |
| 1778034108 | 21.11° C | 65% | 1026.1 hPa | 0 mm | 0 m/s | 0 W/m² | - |
| 1778033806 | 21.11° C | 64% | 1026.2 hPa | 0 mm | 0 m/s | 0 W/m² | - |
| 1778033502 | 21.11° C | 64% | 1026.1 hPa | 0 mm | 0 m/s | 0 W/m² | - |
| 1778033199 | 21.11° C | 65% | 1026.1 hPa | 0 mm | 0 m/s | 0 W/m² | - |
| 1778032897 | 21.11° C | 65% | 1026 hPa | 0 mm | 0 m/s | 0 W/m² | - |
| 1778032594 | 21.11° C | 65% | 1025.8 hPa | 0 mm | 0 m/s | 0 W/m² | - |
| 1778032291 | 21.11° C | 65% | 1025.8 hPa | 0 mm | 0 m/s | 0 W/m² | - |
| 1778031989 | 21.67° C | 64% | 1025.9 hPa | 0 mm | 0 m/s | 0 W/m² | - |
| 1778031684 | 22.22° C | 62% | 1025.7 hPa | 0 mm | 0 m/s | 0 W/m² | - |
* Rain latest hour (hover to see other rain measurements)
** Current wind speed in m/s (hover to see current wind gust speed)